{"data":{"norad_id":65781,"intl_designator":"2025-217V","name":"KUIPER-00168","alt_names":[],"object_type":"PAYLOAD","status":"ACTIVE","operator":null,"country":"US","launch_date":"2025-09-25","launch_site_code":"AFETR","launch_vehicle":null,"mission":null,"orbit_class":"UNKNOWN","rcs_meters":null,"size_class":null,"mass_kg":null,"dimensions":null,"purposes":[],"wikipedia_slug":null,"has_3d_model":false,"image_url":null,"decayed_at":null,"tle_current":{"epoch":"2026-05-25T04:14:52.996992Z","epoch_age_seconds":70456,"freshness":"FRESH","line1":"1 65781U 25217V   26145.17700228  .00001811  00000+0  26644-3 0  9994","line2":"2 65781  51.9012  49.8774 0000900 100.4937 259.6126 14.79938939 36416","mean_motion":14.79938939,"eccentricity":9.0e-5,"inclination_deg":51.9012,"raan_deg":49.8774,"arg_perigee_deg":100.4937,"mean_anomaly_deg":259.6126,"bstar":0.00026644,"rev_number":3641,"period_min":97.30131169959,"perigee_km":628.88619243706,"apogee_km":630.14757013569,"semimajor_km":7007.6538812864,"source":"CELESTRAK","updated_at":"2026-05-25T13:38:05.689827Z"}}}